Weather History for KAMG - January, 2013

Change the Weather History Date:

Wednesday, January 30, 2013

  Actual Average Record
Temperature  
Mean Temperature 68 °F 52 °F  
Max Temperature 82 °F 63 °F 83 °F (1975)
Min Temperature 53 °F 41 °F 10 °F (1966)
Degree Days  
Heating Degree Days 0 13  
Month to date heating degree days 240 437  
Since 1 July heating degree days 834 1077  
Cooling Degree Days 3 0  
Month to date cooling degree days 24 0  
Year to date cooling degree days 24 0  
Growing Degree Days 17 (Base 50)    
Moisture  
Dew Point 60 °F    
Average Humidity 71    
Maximum Humidity 93    
Minimum Humidity 49    
Precipitation  
Precipitation 0.38 in 0.15 in 1.30 in (1991)
Month to date precipitation 0.57 4.11  
Year to date precipitation 0.57 4.11  
Snow  
Snow 0.00 in 0.00 in 0.00 in ()
Month to date snowfall 0.0 0.0  
Since 1 July snowfall 0.0 0.1  
Snow Depth 0.00 in    
Sea Level Pressure  
Sea Level Pressure 29.89 in    
Wind  
Wind Speed 15 mph (SSW)    
Max Wind Speed 32 mph    
Max Gust Speed 40 mph    
Visibility 8 miles    
Events Rain    
T = Trace of Precipitation, MM = Missing Value Source: NWS Daily Summary

Daily Weather History Graph

Daily Weather History Graph

Search for Another Location

Airport or City:

Trip Planner

Search our weather history database for the weather conditions in past years. The results will help you decide how hot, cold, wet, or windy it might be!

Date:

Astronomy

Jan. 30, 2013 Rise Set
Actual Time 7:23 AM EST 6:03 PM EST
Civil Twilight 6:58 AM EST 6:28 PM EST
Nautical Twilight 6:29 AM EST 6:57 PM EST
Astronomical Twilight 6:00 AM EST 7:26 PM EST
Moon 9:41 PM EST (1/30) 9:08 AM EST (1/30)
Length of Visible Light 11h 30m
Length of Day
10h 39m
Waning Gibbous, 88% of the Moon is Illuminated
Jan 30
Waning Gibbous
Feb 3
Last Quarter
Feb 10
New
Feb 17
First Quarter
Feb 25
Full

Hourly Weather History & Observations

Time (EST) Temp. Heat Index Dew Point Humidity Pressure Visibility Wind Dir Wind Speed Gust Speed Precip Events Conditions
12:53 AM 66.0 °F - 63.0 °F 90% 30.07 in 9.0 mi South 6.9 mph - N/A   Clear
1:53 AM 66.0 °F - 63.0 °F 90% 30.04 in 8.0 mi SSE 5.8 mph - N/A   Partly Cloudy
2:53 AM 66.9 °F - 64.0 °F 90% 30.02 in 8.0 mi SE 6.9 mph - N/A   Overcast
3:19 AM 66.2 °F - 64.4 °F 94% 30.02 in 9.0 mi South 4.6 mph - N/A   Overcast
3:53 AM 66.9 °F - 64.0 °F 90% 30.01 in 9.0 mi SSE 6.9 mph - N/A   Overcast
4:22 AM 68.0 °F - 64.4 °F 88% 30.01 in 10.0 mi South 6.9 mph - N/A   Overcast
4:53 AM 68.0 °F - 64.0 °F 87% 30.00 in 9.0 mi South 5.8 mph - N/A   Overcast
5:09 AM 68.0 °F - 64.4 °F 88% 29.98 in 9.0 mi SE 8.1 mph - N/A   Overcast
5:38 AM 69.8 °F - 64.4 °F 83% 29.98 in 9.0 mi South 11.5 mph - N/A   Overcast
5:53 AM 69.1 °F - 64.9 °F 87% 29.97 in 9.0 mi SSE 10.4 mph - N/A   Overcast
6:53 AM 69.1 °F - 64.9 °F 87% 29.97 in 9.0 mi South 11.5 mph - N/A   Overcast
7:53 AM 69.1 °F - 64.9 °F 87% 29.97 in 9.0 mi South 11.5 mph - N/A   Overcast
8:50 AM 69.8 °F - 64.4 °F 83% 29.94 in 10.0 mi South 16.1 mph 23.0 mph N/A   Scattered Clouds
8:53 AM 70.0 °F - 64.0 °F 81% 29.94 in 10.0 mi South 15.0 mph 23.0 mph N/A   Partly Cloudy
9:53 AM 73.9 °F - 61.0 °F 64% 29.96 in 10.0 mi South 16.1 mph 28.8 mph N/A   Clear
10:53 AM 77.0 °F - 60.1 °F 56% 29.93 in 10.0 mi South 13.8 mph 28.8 mph N/A   Clear
11:53 AM 80.1 °F 80.7 °F 59.0 °F 48% 29.89 in 10.0 mi South 17.3 mph 25.3 mph N/A   Partly Cloudy
12:53 PM 81.0 °F 81.3 °F 59.0 °F 47% 29.86 in 10.0 mi South 21.9 mph 29.9 mph N/A   Mostly Cloudy
1:53 PM 80.1 °F 80.7 °F 59.0 °F 48% 29.82 in 10.0 mi South 20.7 mph 32.2 mph N/A   Mostly Cloudy
2:53 PM 80.1 °F 80.9 °F 60.1 °F 50% 29.78 in 10.0 mi SSW 18.4 mph 35.7 mph N/A   Overcast
3:53 PM 78.1 °F - 62.1 °F 58% 29.77 in 10.0 mi SSW 21.9 mph 31.1 mph 0.00 in   Overcast
4:53 PM 79.0 °F - 62.1 °F 56% 29.74 in 10.0 mi South 21.9 mph 33.4 mph N/A   Overcast
5:53 PM 77.0 °F - 62.1 °F 60% 29.72 in 10.0 mi South 21.9 mph 33.4 mph N/A   Overcast
6:53 PM 75.0 °F - 63.0 °F 66% 29.70 in 10.0 mi South 24.2 mph 35.7 mph N/A   Overcast
7:53 PM 75.9 °F - 63.0 °F 64% 29.72 in 10.0 mi South 23.0 mph 31.1 mph N/A   Overcast
8:41 PM 66.2 °F - 60.8 °F 83% 29.77 in 1.5 mi WNW 26.5 mph 40.3 mph 0.12 in Rain Light Rain
8:51 PM 59.0 °F - 55.4 °F 88% 29.79 in 2.5 mi WNW 19.6 mph 32.2 mph 0.17 in Rain Light Rain
8:52 PM 59.0 °F - 55.9 °F 90% 29.79 in 3.0 mi West 18.4 mph 29.9 mph 0.18 in Rain Light Rain
8:59 PM 57.2 °F - 53.6 °F 88% 29.79 in 4.0 mi West 19.6 mph 35.7 mph 0.02 in Rain Rain
9:07 PM 57.2 °F - 53.6 °F 88% 29.81 in 5.0 mi West 19.6 mph 31.1 mph 0.04 in Rain Light Rain
9:38 PM 53.6 °F - 51.8 °F 94% 29.83 in 2.0 mi West 16.1 mph 25.3 mph 0.15 in Rain Heavy Rain
9:53 PM 53.1 °F - 51.1 °F 93% 29.82 in 3.0 mi West 8.1 mph 18.4 mph 0.19 in Rain Rain
10:53 PM 55.0 °F - 48.0 °F 77% 29.84 in 10.0 mi West 10.4 mph - 0.01 in   Overcast
11:53 PM 55.0 °F - 48.0 °F 77% 29.85 in 10.0 mi WSW 6.9 mph - N/A   Mostly Cloudy